Flag for Japan Weather past 2 weeks in Nagoya, Japan

Now
81 °F

Fog.


Feels Like: 88 °F
Forecast: 75 / 96 °F
Wind: 8 mph from Southeast

Location: Nagoya Airport

Current Time: Jul 26, 2014 at 6:20:51 AM

Latest Report: Jul 26, 2014 at 5:30 AM


Visibility: 2 mi

Pressure: 29.89 "Hg

Humidity: 94%

Dew point: 79 °F

Location of NagoyaLocation

Historic Weather in Nagoya — Graph

°F

Nagoya temperature yesterday

Maximum temperature yesterday: 90 °F (at 12:30 PM)
Minimum temperature yesterday: 79 °F (at 1:30 AM)
Average temperature yesterday: 84 °F

Past Weeks' High & Low Weather Summary

 TemperatureHumidityPressure
High91 °F (Jul 17, 1:30 PM)100% (Jul 14, 12:30 AM)29.92 "Hg (Jul 14, 12:30 AM)
Low72 °F (Jul 12, 4:00 AM)55% (Jul 12, 1:00 PM)29.33 "Hg (Jul 11, 5:00 AM)
Average81 °F83%29.77 "Hg
* Reported Jul 11 5:00 AM — Jul 26 5:00 AM, Nagoya, Weather by CustomWeather, © 2014

Note: Actual official high and low records may vary slightly from our data, if they occured in-between our weather recording intervals... More about our weather records

Advertising

Nagoya weather history for previous 24 hours

 ConditionsComfort  
Time TempWeatherWind HumidityBarometerVisibility
5:00 AM
Jul 26
81 °FFog.9 mph94%29.89 "Hg2 mi
4:30 AM81 °FFog.7 mph100%29.86 "Hg3 mi
4:00 AM81 °FPassing clouds.6 mph100%29.86 "Hg4 mi
3:30 AM81 °FPassing clouds.8 mph100%29.86 "Hg4 mi
3:00 AM81 °FPassing clouds.9 mph100%29.86 "Hg4 mi
2:30 AM81 °FPassing clouds.8 mph100%29.86 "Hg5 mi
2:00 AM81 °FPassing clouds.9 mph94%29.86 "Hg5 mi
1:30 AM81 °FPassing clouds.10 mph94%29.86 "Hg4 mi
1:00 AM81 °FClear.13 mph94%29.89 "Hg10 mi
12:30 AM82 °FClear.13 mph89%29.89 "Hg10 mi
12:00 AM82 °FClear.15 mph89%29.89 "Hg10 mi
11:30 PM
Jul 25
82 °FClear.15 mph89%29.89 "Hg10 mi
11:00 PM82 °FClear.15 mph89%29.89 "Hg10 mi
10:30 PM84 °FClear.13 mph84%29.89 "Hg10 mi
10:00 PM84 °FClear.12 mph84%29.89 "Hg10 mi
9:30 PM84 °FClear.8 mph79%29.89 "Hg10 mi
9:00 PM86 °FClear.9 mph75%29.89 "Hg10 mi
8:30 PM86 °FClear.10 mph75%29.86 "Hg10 mi
8:00 PM86 °FClear.7 mph79%29.86 "Hg10 mi
7:30 PM86 °FClear.12 mph79%29.83 "Hg10 mi
7:00 PM86 °FPassing clouds.14 mph79%29.83 "HgN/A
6:30 PM86 °FPassing clouds.12 mph84%29.83 "HgN/A
6:00 PM86 °FPassing clouds.10 mph84%29.83 "HgN/A
5:30 PM88 °FPassing clouds.13 mph79%29.83 "HgN/A
5:00 PM88 °FPassing clouds.13 mph79%29.83 "HgN/A
4:30 PM90 °FPassing clouds.14 mph71%29.80 "HgN/A
4:00 PM90 °FPassing clouds.8 mph75%29.80 "HgN/A
3:30 PM90 °FPassing clouds.7 mph75%29.80 "HgN/A
3:00 PM90 °FPassing clouds.8 mph79%29.80 "HgN/A
2:30 PM88 °FPassing clouds.9 mph84%29.80 "HgN/A
2:00 PM88 °FPassing clouds.8 mph79%29.80 "HgN/A
1:30 PM88 °FPassing clouds.7 mph75%29.80 "HgN/A
1:00 PM88 °FPassing clouds.7 mph75%29.80 "HgN/A
12:30 PM90 °FPassing clouds.3 mph63%29.83 "HgN/A
11:30 AM86 °FPassing clouds.9 mph75%29.83 "HgN/A
11:00 AM84 °FPassing clouds.8 mph84%29.83 "HgN/A
10:30 AM84 °FPassing clouds.6 mph79%29.83 "HgN/A
10:00 AM86 °FPassing clouds.6 mph75%29.83 "HgN/A
9:30 AM84 °FPassing clouds.7 mph79%29.83 "HgN/A
9:00 AM84 °FPassing clouds.9 mph74%29.83 "HgN/A
8:30 AM82 °FPassing clouds.9 mph84%29.83 "HgN/A
8:00 AM81 °FPassing clouds.8 mph89%29.83 "HgN/A
7:30 AM82 °FPassing clouds.8 mph79%29.83 "HgN/A
7:00 AM82 °FPassing clouds.8 mph79%29.83 "HgN/A
6:30 AM81 °FPassing clouds.2 mph84%29.83 "HgN/A
6:00 AM81 °FPassing clouds.3 mph84%29.83 "HgN/A
Weather by CustomWeather, © 2014

See weather overviewHow to use our weather pages